Location: *
(45.9500°N, 9.0833°E)
Time: 00:47:16
(UTC+00:00)

SR - Pass Details

Date: 14 June 2021
Orbit: 577 x 878 km, 66.7° (Epoch: 23 July)

Event Time Altitude Azimuth Distance (km) Brightness Sun altitude
Rises 18:04:23 0° 232° (SW) 3,452 ? 9.9°
Reaches altitude 10° 18:06:58 10° 238° (WSW) 2,527 ? 9.5°
Maximum altitude 18:12:38 46° 311° (NW) 1,162 ? 8.6°
Drops below altitude 10° 18:18:14 10° 24° (NNE) 2,492 ? 7.7°
Sets 18:20:46 0° 31° (NNE) 3,401 ? 7.4°
